www.pogodaiklimat.ru

Погода и климат >> Архив погоды >> Россия >> Владимирская область >> Юрьев-Польский


ПОГОДА в Юрьев-Польском

  • Прогноз погоды в Юрьев-Польском
  • Монитор погоды в Юрьев-Польском

АРХИВ ПОГОДЫ в Юрьев-Польском

Время (UTC), дата Ветер
(напр.,м/с)
 
Видим.   Явления Облачность Т
(С)
Тd
(С)
f
(%)
Тe
(С)
Тes
(С)
Комфортность P
(гПа)
Po
(гПа)
Тmin
(С)
Tmax
(С)
R
(мм)
R24
(мм)
S
(см)
12 9.07 СЗ 2 20 км 9/8 300 м
[Cb cap Ac As]
+20.9 +11.0 53 +24 +25 комфорт 998.4 981.0
15 9.07 СВ 1 20 км 9/8 300 м
[Cb cap Ac lent]
+17.6 +11.6 68 +19 +19 998.8 981.1 +20.9
18 9.07 штиль 0 20 км 6/4 300 м
[Cb cap Ac trans]
+13.9 +11.5 85 +14 +14 998.9 980.9
21 9.07 штиль 0 4000 м 10/10 300 м
[Cb cap]
+12.9 +11.1 89 +12 +12 998.2 980.3
00 10.07 ЮВ 1 4000 м в посл. час ливневой дождь 8/6 300 м
[Cb cap Ac trans]
+11.8 +10.6 92 +12 +12 997.0 979.1
03 10.07 штиль 0 10 км 9/4 600 м
[Sc Cs]
+11.6 +10.1 91 +11 +12 996.3 978.2 +10.4 1
06 10.07 ЮЗ 2 20 км 8/1 1000 м
[Cu med, cong Cc]
+17.8 +11.6 67 +18 +25 995.4 977.9
09 10.07 З 2 20 км слаб. ливневой дождь 9/8 600 м
[Cb cap Ac As Ci fib]
+17.7 +12.2 70 +18 +20 994.9 977.4
12 10.07 З 2
{10}
20 км слаб. ливневой дождь {гроза} 10/4 600 м
[Cb cap Ac und]
+16.0 +12.2 78 +16 +18 996.8 979.0
15 10.07 З 2 20 км слаб. ливневой дождь 10/5 600 м
[Cb cap Ac und]
+14.3 +11.7 84 +14 +14 997.3 979.5 +20.4 5
18 10.07 З 2 20 км слаб. дождь 10/0 300 м
[As op]
+13.6 +12.1 91 +13 +13 997.9 980.1
21 10.07 СЗ 1 4000 м слаб. дождь 10/0 300 м
[As op]
+13.3 +12.2 93 +13 +13 998.2 980.2
00 11.07 штиль 0 4000 м {дождь} 10/10 600 м
[Sc]
+12.1 +11.1 94 +11 +11 998.7 980.8
03 11.07 СВ 1 20 км слаб. дождь 10/0 300 м
[As op]
+12.1 +10.8 92 +12 +13 999.3 981.2 +12.0 3
06 11.07 СВ 2 20 км слаб. дождь 10/10 300 м
[Frnb Ns]
+12.6 +11.1 91 +12 +12 1000.0 982.1
09 11.07 С 1 20 км слаб. дождь 10/10 300 м
[Frnb Ns]
+13.3 +11.6 89 +13 +13 1001.1 983.2
12 11.07 С 2 20 км {дождь} 10/10 300 м
[Cb cap]
+13.5 +10.1 80 +13 +13 1002.2 984.3
15 11.07 СВ 2 20 км 9/4 300 м
[Sc Ac As]
+13.7 +9.4 75 +13 +14 1003.2 985.3 +14.5 0.5
18 11.07 СВ 1 20 км 9/3 600 м
[Sc Ac lent]
+12.0 +9.1 82 +12 +12 1004.2 986.2
21 11.07 штиль 0 4000 м 9/3 600 м
[Sc Ac lent]
+10.7 +9.3 91 +10 +10 1004.7 986.6
00 12.07 СЗ 1 4000 м слаб. дождь 10/0 300 м
[As op]
+9.7 +8.1 90 +9 +9 1005.2 987.0
03 12.07 СВ 1 20 км слаб. дождь 10/0 300 м
[As op]
+9.7 +8.7 93 +9 +9 1005.9 987.5 +9.3 4
06 12.07 С 1 20 км {дождь} 10/6 300 м
[Cb cap Ac As]
+10.9 +8.7 86 +11 +12 1006.5 988.4
09 12.07 С 1 20 км 9/8 300 м
[Cb cap Ac As]
+12.4 +7.3 71 +13 +15 1007.6 989.5
12 12.07 ЮВ 1 20 км 8/4 600 м
[Sc diur, vesp Ac trans]
+16.3 +6.4 52 +17 +22 1007.4 989.6
15 12.07 В 1 20 км 4/4 600 м
[Sc diur, vesp]
+16.2 +4.9 47 +17 +19 1007.8 989.7 +17.1 0.0
18 12.07 штиль 0 20 км 6/0
[Ac As]
+12.4 +7.8 74 +12 +12 1008.4 990.4
21 12.07 СЗ 1 4000 м 6/0
[Ac As]
+10.2 +8.6 90 +10 +10 1008.7 990.3
00 13.07 З 1 4000 м {ливн. осадки} 8/5
[Cb cap Ac As]
+9.5 +8.5 93 +9 +9 1008.1 989.9
03 13.07 штиль 0 20 км слаб. дождь 10/0
[As op]
+10.1 +9.2 94 +9 +10 1008.5 990.1 +9.2 0.5
06 13.07 СВ 1 20 км {дождь} 9/6 300 м
[Cb cap Ac As]
+13.0 +9.3 78 +13 +15 1008.6 990.5
09 13.07 В 1 20 км 8/5 300 м
[Cb cap Ac cast Ci]
+16.9 +7.5 54 +18 +24 1008.5 990.4
12 13.07 СЗ 1 20 км {ливн. осадки} 9/6 300 м
[Cb cap Ac As]
+17.5 +6.2 47 +19 +21 1008.5 990.5
15 13.07 З 1 20 км 6/5 300 м
[Cb cap Ac lent]
+17.4 +6.8 50 +18 +20 1009.0 991.0 +18.4 0.0
18 13.07 штиль 0 20 км 4/3 600 м
[Sc diur, vesp Cs]
+13.5 +9.5 77 +13 +13 1009.8 991.8
21 13.07 штиль 0 4000 м 4/0
[Ac trans]
+8.8 +7.6 92 +8 +8 1010.7 992.3
00 14.07 штиль 0 4000 м 9/9 600 м
[Sc]
+9.5 +8.5 93 +9 +9 1010.8 992.5
03 14.07 штиль 0 20 км 9/6 600 м
[Sc Ac trans]
+11.3 +10.1 92 +11 +11 1011.2 992.8 +8.6
06 14.07 штиль 0 20 км 9/4 600 м
[Sc Ac und]
+17.0 +9.8 63 +17 +20 1010.9 992.9
09 14.07 Ю 2 20 км 9/6 600 м
[Cu Sc Ac trans Ci sp]
+18.2 +7.1 48 +19 +23 1010.8 992.8
12 14.07 СВ 2 20 км 9/9 600 м
[Cb cap]
+17.9 +9.0 56 +18 +20 1010.9 992.9
15 14.07 штиль 0 20 км {ливн. осадки} 9/9 300 м
[Cb cap]
+15.7 +11.9 78 +16 +16 1011.1 993.0 +19.7 0.7
18 14.07 штиль 0 20 км {ливн. осадки} 8/3 600 м
[Sc Ac As]
+13.3 +11.7 90 +13 +13 1011.4 993.3
21 14.07 штиль 0 4000 м 4/3 600 м
[Sc Ci fib]
+9.0 +8.0 93 +8 +8 1011.7 993.3
00 15.07 ЮЗ 1 4000 м дымка 6/0
[Ac As Ci fib]
+7.1 +6.4 95 +6 +6 1011.9 993.2
03 15.07 штиль 0 4000 м дымка 8/3 600 м
[Sc Ac trans Cs]
+8.6 +7.8 95 +8 +9 1012.1 993.5 +6.5
06 15.07 СЗ 1 20 км 8/0
[Ac As Ci fib]
+17.8 +8.9 56 +19 +26 1011.4 993.4
09 15.07 З 2 20 км 9/4 600 м
[Cu Sc Ac As]
+19.3 +8.7 50 +21 +24 комфорт 1010.5 992.8
12 15.07 ЮЗ 1 20 км 8/4 600 м
[Cb cap Ac lent Ci fib]
+20.5 +9.3 49 +23 +28 комфорт 1010.5 992.7
15 15.07 Ю 1 20 км 8/3 300 м
[Sc Ac As]
+18.9 +11.4 62 +21 +22 комфорт 1010.5 992.6 +20.8
18 15.07 штиль 0 20 км 9/1 600 м
[Sc diur, vesp Ac und]
+16.7 +11.5 71 +17 +17 1011.0 992.9
21 15.07 З 1 4000 м 3/0
[Ac trans Ci fib]
+11.1 +9.4 89 +11 +11 1011.4 993.2
00 16.07 штиль 0 4000 м дымка 1/0
[Ci fib]
+8.5 +7.4 93 +8 +8 1011.9 993.3
03 16.07 штиль 0 1000 м дымка 1/0
[Ac trans]
+10.7 +9.2 90 +10 +12 1012.5 994.0 +8.0
06 16.07 В 1 20 км 4/0
[Ac trans Cs]
+18.5 +11.6 64 +20 +28 1011.7 994.0
09 16.07 Ю 2 20 км 9/6 600 м
[Sc diur, vesp Ac trans]
+21.5 +10.6 50 +23 +26 комфорт 1011.3 993.6

 

Местоположение метеостанции Юрьев-Польский (Владимирская область, Россия): широта 56.48 долгота 39.68 высота над уровнем моря 154 м.

В архиве по умолчанию представлена погода в Юрьев-Польском за последнюю неделю. Архивные данные за месяц целиком и за предыдущие месяцы, начиная с января 2011 года, Вы можете получить, выбрав интересующий диапазон дат из раскрывающегося списка и нажав кнопку "Ввод!".


*Определитесь, кто Вы:
робот инопланетянин человек

Внимание! Время в таблицах - всемирное. Для получения местного времени необходимо прибавить поправку, которая равна 3 ч.

Смотрите также архив погоды в соседних городах и на ближайших метеорологических станциях:

Погода в Суздале (Владимирская область, Россия) (48 км)
Погода в Владимире (Владимирская область, Россия) (58 км)
Погода в Александрове (Владимирская область, Россия) (58 км)
Погода в Переславль-Залесском (Ярославская область, Россия) (58 км)
Погода в Петушках (Владимирская область, Россия) (63 км)
Погода в Тейково (Ивановская область, Россия) (67 км)
Погода в Ростове Великом (Ярославская область, Россия) (82 км)
Погода в Гаврилов-Яме (Ярославская область, Россия) (94 км)
Погода в Борисоглебском (Ярославская область, Россия) (94 км)
Погода в Иванове (Ивановская область, Россия) (95 км)

Пояснения к столбцам:

Ветер - указаны скорость ветра в м/с - средняя за 10 мин, порывы в срок и между сроками (в фигурных скобках) и направление, откуда дует ветер: С - северный, СВ - северо-восточный, В - восточный, ЮВ - юго-восточный, Ю - южный, ЮЗ - юго-западный, З - западный, СЗ - северо-западный.
Видимость - горизонтальная дальность видимости в метрах или километрах. При видимости от 1 до 10 км при отсутствии осадков обычно наблюдается дымка, при ухудшении видимости до 1 км и менее - туман. В сухую погоду видимость может ухудшаться дымом, пылью или мглою.
Явления - указаны атмосферные явления, наблюдавшиеся в срок или в последний час перед сроком; фигурными скобками обозначены явления, наблюдавшиеся между сроками (за 1-3 часа до срока); квадратными скобками обозначены град или гололедные отложения с указанием их диаметра в мм.
Облачность - указаны через наклонную черту общая и нижняя облачность в баллах и высота нижней границы облаков в метрах; квадратными скобками обозначены формы облаков: Ci - перистые, Cs - перисто-слоистые, Cc - перисто-кучевые, Ac - высококучевые, As - высокослоистые, Sc - слоисто-кучевые, Ns - слоисто-дождевые, Cu - кучевые, Cb - кучево-дождевые. Подробнее классификацию облаков см. в Атласе облаков (PDF).
T - Температура воздуха - температура, измеренная на высоте 2 м над землей.
Td - Температура точки росы - температура, при понижении до которой содержащийся в воздухе водяной пар достигнет насыщения.
f - Относительная влажность воздуха - влажноcть воздуха, измеренная на высоте 2 м над землей.
Te - Эффективная температура - температура, которую ощущает одетый по сезону человек в тени. Характеристика душности погоды. При расчете учитывается влияние влажности воздуха и скорости ветра на теплоощущения человека.
Tes - Эффективная температура на солнце - температура, которую ощущает человек, с поправкой на солнечный нагрев. Характеристика знойности погоды. Зависит от высоты солнца над горизонтом, облачности и скорости ветра. Ночью, в пасмурную погоду, а также при ветре 12 м/с и более поправка равна нулю.
P - Атмосферное давление - приведенное к уровню моря атмосферное давление.
Po - Атмосферное давление - измеренное на уровне метеостанции атмосферное давление.
Tmin - Минимальная температура - минимум температуры воздуха на высоте 2 м над землей.
Tmax - Максимальная температура - максимум температуры воздуха на высоте 2 м над землей.
R - Количество осадков - Количество выпавших осадков за период времени, мм. При наведении курсора мыши на число - период времени, за который выпало указанное количество осадков.
R24 - Количество осадков - Количество выпавших осадков за 24 часа, мм.
S - Снежный покров - Высота снежного покрова, см. При наведении курсора мыши на число - состояние снежного покрова и степень покрытия местности в баллах.